Location: Powder Track
(41.8531°N, 72.3584°W)
Time: 00:30:01
(UTC+00:00)

Vanguard 1 Rocket - Pass Details

Date: 07 August 2021
Orbit: 650 x 4226 km, 34.3° (Epoch: 16 September)

Event Time Altitude Azimuth Distance (km) Brightness Sun altitude
Rises 16:17:05 0° 267° (W) 8,020 12.1 63.1°
Reaches altitude 10° 16:23:16 10° 265° (W) 6,594 11.8 63.5°
Maximum altitude 16:41:47 61° 192° (SSW) 2,445 12.1 64.2°
Drops below altitude 10° 16:51:10 10° 114° (ESE) 3,556 10.7 64.3°
Sets 16:53:29 0° 111° (ESE) 4,231 10.9 64.4°
